Regional Weather Roundup
Issued by NWS

Home | Current Version | Previous Version | Graphics & Text | Print | Product List | Glossary On
Versions: 1 2 3 4 5 6 7 8 9 10 11 12 13 14 15 16 17 18 19 20 21 22 23 24 25 26 27 28 29 30 31 32 33 34 35 36 37 38 39 40 41 42 43 44 45 46 47 48 49 50
000
ASUS43 KMPX 020210
RWRMN
WEATHER ROUNDUP FOR MINNESOTA
NATIONAL WEATHER SERVICE TWIN CITIES/CHANHASSEN MN
800 PM CST SUN MAR 01 2015


NOTE: "FAIR" INDICATES FEW OR NO CLOUDS BELOW 12,000 FEET WITH NO
SIGNIFICANT WEATHER AND/OR OBSTRUCTIONS TO VISIBILITY. N/A MEANS
CURRENT SKY AND/OR WEATHER CONDITIONS ARE NOT AVAILABLE.

MNZ060>063-068>070-020300-
   Twin Cities Metro

CITY           SKY/WX    TMP DP  RH WIND       PRES   REMARKS
TWIN CITIES    PTCLDY    25  12  58 W14       30.29R WCI  13
ST PAUL        PTCLDY    26  12  55 NW17G36   30.30R WCI  13
CRYSTAL        CLOUDY    25  13  60 W15G23    30.28R WCI  13
BLAINE         MOCLDY    27  16  63 W18       30.28R WCI  13
LAKEVILLE      CLEAR     21  14  73 W12       30.29R WCI   9
EDEN PRAIRIE   MOCLDY    24  14  65 W16       30.29R WCI  11
SOUTH ST PAUL  MOCLDY    26  13  58 W7        30.29R WCI  19
LAKE ELMO      MOCLDY    27  14  59 W13       30.28R WCI  16
$$
MNZ001>005-007-008-013>017-022>024-027-028-020300-
   Northwest Minnesota

CITY           SKY/WX    TMP DP  RH WIND       PRES   REMARKS
BEMIDJI        CLEAR      9   5  85 W8        30.24R WCI  -3
HALLOCK        CLEAR      9   3  78 W8        30.27S WCI  -4
ROSEAU         PTCLDY    12   5  73 SW5       30.24R WCI   4
WARROAD        MOCLDY    10   5  79 W9        30.23R WCI  -2
THIEF RVR FALL PTCLDY     9   7  92 SW8       30.28R WCI  -4
CROOKSTON      PTCLDY     7   1  78 W9        30.32S WCI  -7
FOSSTON        CLEAR      1   0  92 CALM      30.29R
DETROIT LAKES  CLEAR     12  10  92 NW6       30.30R WCI   3
MOORHEAD       CLEAR     16  10  79 W9        30.36R WCI   4
PARK RAPIDS    CLEAR     12   6  77 W12       30.26R WCI  -2
MAHNOMEN       FAIR       7   4  90 W6        30.29S WCI  -4
$$
MNZ006-009>011-018-025>026-020300-
   North Central Minnesota

CITY           SKY/WX    TMP DP  RH WIND       PRES   REMARKS
BAUDETTE       PTCLDY    11   0  61 W8        30.19R WCI  -1
FLAG ISLAND    PTCLDY    14   3  62 W10       30.18S WCI   1
INTL FALLS     PTCLDY    12   5  73 W8        30.17R WCI   0
WASKISH        CLEAR      7   3  85 SW10      30.23R WCI  -8
BIG FORK       PTCLDY    12   7  79 W6        30.20R WCI   3
LONGVILLE      CLEAR     12   7  79 W9        30.25R WCI   0
GRAND RAPIDS   MOCLDY    14   7  73 W13G20    30.20R WCI   0
CRANE LAKE     MOCLDY    16   5  62 W5        30.18R WCI   9
ORR            FLURRIES  14   7  73 W9        30.14R WCI   2
COOK           CLOUDY    16   9  73 W13       30.16R WCI   2
WALKER         FAIR      12   6  76 W12       30.25R WCI  -2
$$
MNZ012-019>021-037-020300-
   Northeast Minnesota

CITY           SKY/WX    TMP DP  RH WIND       PRES   REMARKS
DULUTH         CLEAR     18   8  65 W14       30.14R WCI   4
ELY            CLOUDY    16   5  62 W8        30.11R WCI   5
HIBBING        CLOUDY    15   4  61 NW12      30.18R WCI   2
EVELETH        PTCLDY    16   5  62 W10       30.17R WCI   3
DULUTH HARBOR  PTCLDY    21  12  68 W14       30.21R WCI   8
SILVER BAY     PTCLDY    18   3  53 CALM      30.11R
GRAND MARAIS     N/A     18   6  59 VRB6      30.12R WCI  10
G MARAIS ARPRT PTCLDY    12   0  57 W12G22    30.02R WCI  -2
$$
MNZ029>031-032-039>041-046>048-054>057-064-020300-
   West Central Minnesota

CITY           SKY/WX    TMP DP  RH WIND       PRES   REMARKS
FERGUS FALLS   PTCLDY    16   7  67 N9        30.37R WCI   4
MORRIS         CLEAR     16   9  73 W9        30.34R WCI   4
ALEXANDRIA     MOCLDY    17  10  74 NW15      30.30R WCI   2
ELBOW LAKE     CLOUDY    18  12  77 NW9       30.33R WCI   6
WADENA         FLURRIES  14   9  79 NW12      30.29R WCI   0
APPLETON       CLEAR     18  10  73 W10       30.37R WCI   6
BENSON         CLEAR     16  10  79 NW6       30.35R WCI   7
ORTONVILLE     CLEAR     18   9  68 NW9       30.37R WCI   6
MADISON        CLEAR     19  12  73 W8        30.38R WCI   9
WILLMAR        FAIR      21  12  68 NW9       30.35R WCI  11
$$
MNZ033>034-036-042>043-049>051-058-059-020300-
   Central Minnesota

CITY           SKY/WX    TMP DP  RH WIND       PRES   REMARKS
ST CLOUD       CLOUDY    21  13  71 W18G25    30.29R WCI   6
SAUK CENTRE    FAIR      16  11  80 W7        30.31R WCI   6
PAYNESVILLE    CLEAR     16  10  77 SW9       30.32R WCI   5
PINE RIVER     PTCLDY    16   9  73 W8        30.29R WCI   5
BRAINERD       PTCLDY    17   8  67 W9        30.26R WCI   6
STAPLES        CLOUDY    16   9  73 NW17      30.28R WCI   0
LONG PRAIRIE   MOCLDY    18  10  73 W16       30.29R WCI   3
LITTLE FALLS   CLOUDY    21  10  63 W15G22    30.29R WCI   8
LITCHFIELD     MOCLDY    23  14  68 NW16G24   30.32R WCI  10
BUFFALO        PTCLDY    23  14  68 W14G21    30.31R WCI  11
MAPLE LAKE     MOCLDY    24  17  75 W12G21    30.31R WCI  12
$$
MNZ037-044-045-052-053-020300-
   East Central Minnesota

CITY           SKY/WX    TMP DP  RH WIND       PRES   REMARKS
PRINCETON      MOCLDY    23  16  74 W15G21    30.28R WCI  10
MORA           PTCLDY    19  10  68 W7        30.27R WCI  10
CAMBRIDGE      MOCLDY    25  12  58 W9        30.25R WCI  15
RUSH CITY      PTCLDY    19  10  69 W5        30.26R WCI  12
MOOSE LAKE     CLOUDY    21  10  63 CALM      30.20R
HINCKLEY       FAIR      21  12  68 W8        30.24R WCI  12
CLOQUET        PTCLDY    19   9  63 W15       30.17R WCI   5
MCGREGOR       MOCLDY    19  12  73 W7        30.22R WCI  10
$$
MNZ071>073-080-081-089-090-097-098-020300-
   Southwest Minnesota

CITY           SKY/WX    TMP DP  RH WIND       PRES   REMARKS
MONTEVIDEO     CLEAR     19  12  73 N7        30.38R WCI  10
GRANITE FALLS  PTCLDY    19  13  76 W12       30.38R WCI   7
CANBY          CLEAR     17  12  79 W8        30.39R WCI   7
MARSHALL       CLEAR     18  10  73 NW13      30.38R WCI   4
REDWOOD FALLS  CLEAR     22  14  71 W15       30.36R WCI   9
OLIVIA         CLEAR     21  14  73 W12       30.34R WCI   9
PIPESTONE      CLEAR     21  16  79 NW9       30.35R WCI  11
WINDOM         FLURRIES  21  18  86 W12       30.35R WCI   9
WORTHINGTON    CLEAR     28  12  50 NW13      30.37R WCI  18
JACKSON        CLEAR     25  14  63 W14       30.35R WCI  13
TRACY          CLEAR     21  15  78 NW12      30.36R WCI   9
SLAYTON        CLEAR     19  14  80 CALM      30.35R
$$
MNZ065>067-074>077-082>085-091>093-020300-
   South Central Minnesota

CITY           SKY/WX    TMP DP  RH WIND       PRES   REMARKS
MANKATO        CLOUDY    25  16  68 W13G21    30.33R WCI  13
NEW ULM        MOCLDY    25  16  68 NW17      30.34R WCI  11
ST JAMES       MOCLDY    27  19  74 W14       30.36R WCI  15
FAIRMONT       CLEAR     25  12  58 NW15      30.33R WCI  12
GLENCOE        CLEAR     24  19  80 W16       30.31R WCI  10
FARIBAULT      MOCLDY    25  16  68 W14       30.31R WCI  13
OWATONNA       CLOUDY    23  16  74 W10       30.30R WCI  12
WASECA         MOCLDY    21  14  73 W8        30.33R WCI  12
ALBERT LEA     CLEAR     19  12  73 W7        30.32R WCI  10
$$
MNZ078>079-086>088-094>096-020300-
   Southeast Minnesota

CITY           SKY/WX    TMP DP  RH WIND       PRES   REMARKS
ROCHESTER      CLEAR     16   8  71 W13       30.28R WCI   2
RED WING       PTCLDY    21  10  63 W6        30.28R WCI  14
STANTON        CLEAR     25  16  68 W12       30.29R WCI  14
DODGE CENTER   PTCLDY    18  10  73 W10       30.28R WCI   6
WINONA         CLEAR     23  12  63 W6        30.31R WCI  16
AUSTIN         CLEAR     19  12  73 W8        30.30S WCI   9
PRESTON        CLEAR     17  10  74 SW10      30.29R WCI   5
$$
ABBREVIATIONS USED IN REMARKS
   TC - TEMPERATURES IN CELSIUS
  WCI - WIND CHILL INDEX
   HX - HEAT INDEX
  VSB - VISIBILITY
$$


USA.gov is the U.S. government's official web portal to all federal, state and local government web resources and services.